Time,TemperatureF,DewpointF,PressureIn,WindDirection,WindDirectionDegrees,WindSpeedMPH,WindSpeedGustMPH,Humidity,HourlyPrecipIn,Conditions,Clouds,dailyrainin,SoftwareType,DateUTC
2013-05-27 00:29:00,42.9,35.2,30.05,North,355,0.0,1.0,74,0.00,,---,0.00,VWS V14.00,2013-05-27 04:29:00,
2013-05-27 00:59:00,42.2,35.5,30.06,WNW,288,0.0,0.0,77,0.00,,---,0.00,VWS V14.00,2013-05-27 04:59:00,
2013-05-27 01:29:00,41.6,34.9,30.05,NW,309,0.0,1.0,77,0.00,,---,0.00,VWS V14.00,2013-05-27 05:29:00,
2013-05-27 01:59:00,41.2,34.2,30.05,NW,309,0.0,0.0,76,0.00,,---,0.00,VWS V14.00,2013-05-27 05:59:00,
2013-05-27 02:29:00,40.8,34.5,30.06,WNW,291,0.0,1.0,78,0.00,,---,0.00,VWS V14.00,2013-05-27 06:29:00,
2013-05-27 02:59:00,40.3,34.0,30.06,NW,304,1.0,1.0,78,0.00,,---,0.00,VWS V14.00,2013-05-27 06:59:00,
2013-05-27 03:29:00,40.0,33.7,30.07,NW,317,0.0,2.0,78,0.00,,---,0.00,VWS V14.00,2013-05-27 07:29:00,
2013-05-27 03:59:00,39.4,34.1,30.08,NW,304,0.0,1.0,81,0.00,,---,0.00,VWS V14.00,2013-05-27 07:59:00,
2013-05-27 04:29:00,38.6,33.9,30.09,North,349,0.0,1.0,83,0.00,,---,0.00,VWS V14.00,2013-05-27 08:29:00,
2013-05-27 04:59:00,38.3,33.6,30.10,NNE,30,0.0,1.0,83,0.00,,---,0.00,VWS V14.00,2013-05-27 08:59:00,
2013-05-27 05:29:00,38.2,33.8,30.10,NNW,333,0.0,3.0,84,0.00,,---,0.00,VWS V14.00,2013-05-27 09:29:00,
2013-05-27 05:59:00,38.6,33.0,30.12,NW,308,2.0,2.0,80,0.00,,---,0.00,VWS V14.00,2013-05-27 09:59:00,
2013-05-27 06:29:00,41.1,33.8,30.11,SSW,209,1.0,1.0,75,0.00,,---,0.00,VWS V14.00,2013-05-27 10:29:00,
2013-05-27 06:59:00,42.8,34.4,30.12,South,186,0.0,1.0,72,0.00,,---,0.00,VWS V14.00,2013-05-27 10:59:00,
2013-05-27 07:29:00,45.7,35.4,30.13,South,174,3.0,3.0,67,0.00,,---,0.00,VWS V14.00,2013-05-27 11:29:00,
2013-05-27 07:59:00,49.2,35.5,30.14,NE,40,2.0,2.0,59,0.00,,---,0.00,VWS V14.00,2013-05-27 11:59:00,
2013-05-27 08:29:00,51.9,34.4,30.14,SSE,150,1.0,2.0,51,0.00,,---,0.00,VWS V14.00,2013-05-27 12:29:00,
2013-05-27 08:59:00,54.1,33.2,30.15,WNW,290,1.0,3.0,45,0.00,,---,0.00,VWS V14.00,2013-05-27 12:59:00,
2013-05-27 09:29:00,56.6,34.4,30.15,WNW,296,2.0,2.0,43,0.00,,---,0.00,VWS V14.00,2013-05-27 13:29:00,
2013-05-27 09:59:00,56.9,33.5,30.15,NNE,21,4.0,7.0,41,0.00,,---,0.00,VWS V14.00,2013-05-27 13:59:00,
2013-05-27 10:29:00,58.6,34.4,30.15,North,5,1.0,2.0,40,0.00,,---,0.00,VWS V14.00,2013-05-27 14:29:00,
2013-05-27 10:59:00,59.6,31.9,30.14,NW,306,0.0,12.0,35,0.00,,---,0.00,VWS V14.00,2013-05-27 14:59:00,
2013-05-27 11:29:00,60.5,34.1,30.14,WSW,256,5.0,6.0,37,0.00,,---,0.00,VWS V14.00,2013-05-27 15:29:00,
2013-05-27 11:59:00,62.1,35.5,30.13,ENE,77,1.0,5.0,37,0.00,,---,0.00,VWS V14.00,2013-05-27 15:59:00,
2013-05-27 12:29:00,63.1,33.6,30.13,West,259,3.0,3.0,33,0.00,,---,0.00,VWS V14.00,2013-05-27 16:29:00,
2013-05-27 12:59:00,64.0,32.0,30.11,NE,38,3.0,5.0,30,0.00,,---,0.00,VWS V14.00,2013-05-27 16:59:00,
2013-05-27 13:29:00,64.8,34.3,30.11,SE,128,2.0,5.0,32,0.00,,---,0.00,VWS V14.00,2013-05-27 17:29:00,
2013-05-27 13:59:00,65.9,35.2,30.10,ENE,71,1.0,5.0,32,0.00,,---,0.00,VWS V14.00,2013-05-27 17:59:00,
2013-05-27 14:29:00,65.2,30.4,30.09,NNE,26,3.0,9.0,27,0.00,,---,0.00,VWS V14.00,2013-05-27 18:29:00,
2013-05-27 14:59:00,66.5,29.6,30.09,NNW,344,2.0,6.0,25,0.00,,---,0.00,VWS V14.00,2013-05-27 18:59:00,
2013-05-27 15:29:00,65.4,29.6,30.10,SW,233,4.0,4.0,26,0.00,,---,0.00,VWS V14.00,2013-05-27 19:29:00,
2013-05-27 15:59:00,65.3,28.6,30.10,NW,306,2.0,4.0,25,0.00,,---,0.00,VWS V14.00,2013-05-27 19:59:00,
2013-05-27 16:29:00,65.2,30.4,30.09,SE,141,2.0,5.0,27,0.00,,---,0.00,VWS V14.00,2013-05-27 20:29:00,
2013-05-27 16:59:00,64.0,26.5,30.09,ESE,103,2.0,6.0,24,0.00,,---,0.00,VWS V14.00,2013-05-27 20:59:00,
2013-05-27 17:29:00,63.3,25.9,30.09,WSW,255,0.0,2.0,24,0.00,,---,0.00,VWS V14.00,2013-05-27 21:29:00,
2013-05-27 17:59:00,62.7,27.4,30.09,NNW,331,2.0,4.0,26,0.00,,---,0.00,VWS V14.00,2013-05-27 21:59:00,
2013-05-27 18:29:00,61.4,28.9,30.09,WSW,240,1.0,2.0,29,0.00,,---,0.00,VWS V14.00,2013-05-27 22:29:00,
2013-05-27 18:59:00,60.0,33.0,30.09,NE,40,1.0,2.0,36,0.00,,---,0.00,VWS V14.00,2013-05-27 22:59:00,
2013-05-27 19:29:00,57.6,32.2,30.09,ENE,64,0.0,1.0,38,0.00,,---,0.00,VWS V14.00,2013-05-27 23:29:00,
2013-05-27 19:59:00,55.9,30.0,30.10,North,11,0.0,0.0,37,0.00,,---,0.00,VWS V14.00,2013-05-27 23:59:00,
2013-05-27 20:29:00,54.2,29.8,30.10,North,11,1.0,1.0,39,0.00,,---,0.00,VWS V14.00,2013-05-28 00:29:00,
2013-05-27 20:59:00,52.7,30.3,30.10,North,11,0.0,1.0,42,0.00,,---,0.00,VWS V14.00,2013-05-28 00:59:00,
2013-05-27 21:29:00,51.0,31.0,30.11,North,11,0.0,1.0,46,0.00,,---,0.00,VWS V14.00,2013-05-28 01:29:00,
2013-05-27 21:59:00,49.7,32.3,30.13,North,11,0.0,1.0,51,0.00,,---,0.00,VWS V14.00,2013-05-28 01:59:00,
2013-05-27 22:29:00,48.1,34.9,30.13,North,11,0.0,0.0,60,0.00,,---,0.00,VWS V14.00,2013-05-28 02:29:00,
2013-05-27 22:59:00,45.4,34.7,30.15,North,11,0.0,0.0,66,0.00,,---,0.00,VWS V14.00,2013-05-28 02:59:00,
2013-05-27 23:29:00,43.6,33.8,30.15,North,11,0.0,0.0,68,0.00,,---,0.00,VWS V14.00,2013-05-28 03:29:00,
2013-05-27 23:59:00,42.7,33.2,30.15,North,11,0.0,0.0,69,0.00,,---,0.00,VWS V14.00,2013-05-28 03:59:00,